When you browse on this site, cookies collect data to enhance your experience and personalize the content and advertising you see.
Visit our Privacy Policy to learn more. By continuing to use the site, you agree to this use of cookies and data.
  • In Hungary
  • List of Countries
  • For 7 days
  • Water Temperature
  • Satellite Maps
  • Weather Map
  • News
  • Weather Widgets
  • user-avatar
    Login

    Hourly Weather Shrewsbury

    Today, 19 February, Tuesday

    Time Temperature Precipitation Wind Pressure Humidity
    00:00 +4°C° 0 mm 4 mps 754 mmHg 92%
    01:00 +4°C° 0 mm 4 mps 755 mmHg 91%
    02:00 +4°C° 0 mm 4 mps 755 mmHg 90%
    03:00 +4°C° 0 mm 4 mps 755 mmHg 89%
    04:00 +4°C° 0 mm 4 mps 755 mmHg 90%
    05:00 +3°C° 0 mm 3 mps 755 mmHg 92%
    06:00 +3°C° 0 mm 3 mps 756 mmHg 94%
    07:00 +3°C° 0 mm 3 mps 756 mmHg 91%
    08:00 +4°C° 0 mm 3 mps 756 mmHg 89%
    09:00 +4°C° 0 mm 4 mps 756 mmHg 86%
    10:00 +6°C° 0 mm 4 mps 756 mmHg 79%
    11:00 +7°C° 0 mm 5 mps 756 mmHg 73%
    12:00 +8°C° 0 mm 5 mps 756 mmHg 66%
    13:00 +8°C° 0 mm 5 mps 756 mmHg 69%
    14:00 +8°C° 0 mm 5 mps 756 mmHg 71%
    15:00 +8°C° 0 mm 4 mps 756 mmHg 73%
    16:00 +8°C° 0.1 mm 4 mps 755 mmHg 76%
    17:00 +7°C° 0.1 mm 4 mps 755 mmHg 79%
    18:00 +6°C° 0.1 mm 4 mps 755 mmHg 82%
    19:00 +6°C° 0.3 mm 5 mps 755 mmHg 84%
    20:00 +5°C° 0.3 mm 6 mps 755 mmHg 85%
    21:00 +5°C° 0.3 mm 6 mps 755 mmHg 87%
    22:00 +5°C° 0.5 mm 6 mps 755 mmHg 88%
    23:00 +5°C° 0.5 mm 7 mps 755 mmHg 88%

    Tomorrow, 20 February, Wednesday

    Time Temperature Precipitation Wind Pressure Humidity
    00:00 +5°C° 0.5 mm 7 mps 755 mmHg 89%
    01:00 +6°C° 0.3 mm 7 mps 754 mmHg 89%
    02:00 +6°C° 0.3 mm 7 mps 754 mmHg 89%
    03:00 +6°C° 0.3 mm 7 mps 754 mmHg 89%
    04:00 +6°C° 0 mm 7 mps 754 mmHg 88%
    05:00 +7°C° 0 mm 6 mps 754 mmHg 88%
    06:00 +7°C° 0 mm 6 mps 755 mmHg 88%
    07:00 +7°C° 0 mm 6 mps 755 mmHg 87%
    08:00 +7°C° 0 mm 6 mps 755 mmHg 87%
    09:00 +7°C° 0 mm 6 mps 755 mmHg 87%
    10:00 +8°C° 0 mm 6 mps 756 mmHg 84%
    11:00 +9°C° 0 mm 6 mps 756 mmHg 81%
    12:00 +10°C° 0 mm 6 mps 756 mmHg 79%
    13:00 +10°C° 0 mm 6 mps 756 mmHg 79%
    14:00 +10°C° 0 mm 6 mps 756 mmHg 79%
    15:00 +10°C° 0 mm 6 mps 756 mmHg 79%
    16:00 +9°C° 0 mm 6 mps 756 mmHg 81%
    17:00 +9°C° 0 mm 6 mps 757 mmHg 82%
    18:00 +9°C° 0 mm 5 mps 757 mmHg 84%
    19:00 +8°C° 0 mm 5 mps 757 mmHg 86%
    20:00 +8°C° 0 mm 5 mps 757 mmHg 88%
    21:00 +8°C° 0 mm 5 mps 758 mmHg 90%
    22:00 +8°C° 0 mm 5 mps 758 mmHg 90%
    23:00 +8°C° 0 mm 4 mps 758 mmHg 90%

    Day after tomorrow, 21 February, Thursday

    Time Temperature Precipitation Wind Pressure Humidity
    00:00 +8°C° 0 mm 4 mps 759 mmHg 90%
    01:00 +8°C° 0 mm 4 mps 759 mmHg 91%
    02:00 +8°C° 0 mm 4 mps 759 mmHg 91%
    03:00 +8°C° 0 mm 4 mps 759 mmHg 92%
    04:00 +9°C° 0 mm 3 mps 759 mmHg 93%
    05:00 +8°C° 0 mm 3 mps 760 mmHg 94%
    06:00 +8°C° 0 mm 3 mps 760 mmHg 95%
    07:00 +8°C° 0 mm 4 mps 760 mmHg 94%
    08:00 +8°C° 0 mm 4 mps 761 mmHg 92%
    09:00 +10°C° 0 mm 4 mps 761 mmHg 91%
    10:00 +11°C° 0 mm 4 mps 762 mmHg 87%
    11:00 +12°C° 0 mm 5 mps 762 mmHg 84%
    12:00 +13°C° 0 mm 5 mps 762 mmHg 80%
    13:00 +13°C° 0 mm 5 mps 763 mmHg 80%
    14:00 +13°C° 0 mm 5 mps 763 mmHg 79%
    15:00 +13°C° 0 mm 5 mps 763 mmHg 78%
    16:00 +12°C° 0 mm 4 mps 763 mmHg 83%
    17:00 +10°C° 0 mm 4 mps 763 mmHg 87%
    18:00 +9°C° 0 mm 3 mps 763 mmHg 91%
    19:00 +8°C° 0 mm 3 mps 764 mmHg 92%
    20:00 +8°C° 0 mm 3 mps 764 mmHg 93%
    21:00 +7°C° 0 mm 4 mps 765 mmHg 94%
    22:00 +6°C° 0 mm 4 mps 765 mmHg 92%
    23:00 +6°C° 0 mm 4 mps 766 mmHg 91%

    22 February, Friday

    Time Temperature Precipitation Wind Pressure Humidity
    00:00 +6°C° 0 mm 4 mps 766 mmHg 89%
    01:00 +6°C° 0 mm 4 mps 766 mmHg 89%
    02:00 +6°C° 0 mm 4 mps 766 mmHg 89%
    03:00 +5°C° 0 mm 4 mps 767 mmHg 88%
    04:00 +5°C° 0 mm 4 mps 767 mmHg 88%
    05:00 +5°C° 0 mm 4 mps 767 mmHg 89%
    06:00 +5°C° 0 mm 4 mps 767 mmHg 89%
    07:00 +6°C° 0 mm 4 mps 767 mmHg 87%
    08:00 +7°C° 0 mm 4 mps 768 mmHg 84%
    09:00 +8°C° 0 mm 4 mps 768 mmHg 82%
    10:00 +9°C° 0 mm 5 mps 768 mmHg 78%
    11:00 +12°C° 0 mm 5 mps 768 mmHg 74%
    12:00 +14°C° 0 mm 5 mps 768 mmHg 70%
    13:00 +14°C° 0 mm 5 mps 768 mmHg 70%
    14:00 +14°C° 0 mm 5 mps 768 mmHg 71%
    15:00 +15°C° 0 mm 5 mps 768 mmHg 71%
    16:00 +13°C° 0 mm 4 mps 768 mmHg 77%
    17:00 +12°C° 0 mm 4 mps 768 mmHg 84%
    18:00 +10°C° 0 mm 3 mps 768 mmHg 90%
    19:00 +10°C° 0 mm 3 mps 768 mmHg 91%
    20:00 +8°C° 0 mm 4 mps 768 mmHg 92%
    21:00 +8°C° 0 mm 4 mps 768 mmHg 93%
    22:00 +7°C° 0 mm 4 mps 768 mmHg 93%
    23:00 +8°C° 0 mm 3 mps 768 mmHg 92%

    23 February, Saturday

    Time Temperature Precipitation Wind Pressure Humidity
    00:00 +7°C° 0 mm 3 mps 768 mmHg 92%
    01:00 +7°C° 0 mm 3 mps 768 mmHg 91%
    02:00 +5°C° 0 mm 3 mps 768 mmHg 89%
    03:00 +5°C° 0 mm 3 mps 767 mmHg 87%
    04:00 +5°C° 0 mm 3 mps 767 mmHg 89%
    05:00 +4°C° 0 mm 3 mps 767 mmHg 91%
    06:00 +4°C° 0 mm 4 mps 767 mmHg 92%
    07:00 +5°C° 0 mm 4 mps 767 mmHg 90%
    08:00 +6°C° 0 mm 5 mps 767 mmHg 88%
    09:00 +7°C° 0 mm 5 mps 767 mmHg 86%
    10:00 +8°C° 0 mm 6 mps 767 mmHg 81%
    11:00 +10°C° 0 mm 6 mps 767 mmHg 76%
    12:00 +12°C° 0 mm 7 mps 766 mmHg 70%
    13:00 +13°C° 0 mm 6 mps 766 mmHg 70%
    14:00 +14°C° 0 mm 6 mps 766 mmHg 70%
    15:00 +14°C° 0 mm 6 mps 765 mmHg 69%
    16:00 +13°C° 0 mm 5 mps 766 mmHg 76%
    17:00 +11°C° 0 mm 4 mps 766 mmHg 83%
    18:00 +10°C° 0 mm 3 mps 766 mmHg 89%
    19:00 +9°C° 0 mm 3 mps 766 mmHg 90%
    20:00 +8°C° 0 mm 3 mps 767 mmHg 92%
    21:00 +7°C° 0 mm 3 mps 767 mmHg 93%
    22:00 +7°C° 0 mm 3 mps 767 mmHg 94%
    23:00 +7°C° 0 mm 2 mps 768 mmHg 94%

    24 February, Sunday

    Time Temperature Precipitation Wind Pressure Humidity
    00:00 +6°C° 0 mm 2 mps 768 mmHg 94%
    01:00 +7°C° 0 mm 2 mps 768 mmHg 94%
    02:00 +7°C° 0 mm 2 mps 768 mmHg 94%
    03:00 +8°C° 0 mm 1 mps 768 mmHg 94%
    04:00 +8°C° 0 mm 1 mps 768 mmHg 94%
    05:00 +8°C° 0 mm 1 mps 769 mmHg 94%
    06:00 +8°C° 0 mm 1 mps 769 mmHg 94%
    07:00 +9°C° 0 mm 1 mps 769 mmHg 93%
    08:00 +9°C° 0 mm 1 mps 769 mmHg 92%
    09:00 +10°C° 0 mm 1 mps 770 mmHg 91%
    10:00 +11°C° 0 mm 1 mps 770 mmHg 88%
    11:00 +12°C° 0 mm 1 mps 770 mmHg 85%
    12:00 +13°C° 0 mm 1 mps 770 mmHg 82%
    13:00 +13°C° 0 mm 2 mps 770 mmHg 83%
    14:00 +13°C° 0 mm 2 mps 770 mmHg 84%
    15:00 +13°C° 0 mm 2 mps 770 mmHg 85%
    16:00 +12°C° 0 mm 2 mps 770 mmHg 88%
    17:00 +10°C° 0 mm 2 mps 770 mmHg 91%
    18:00 +10°C° 0 mm 2 mps 771 mmHg 94%
    19:00 +9°C° 0 mm 2 mps 771 mmHg 94%
    20:00 +8°C° 0 mm 2 mps 771 mmHg 95%
    21:00 +9°C° 0 mm 1 mps 771 mmHg 95%
    22:00 +8°C° 0 mm 1 mps 771 mmHg 95%
    23:00 +8°C° 0 mm 1 mps 771 mmHg 95%
    Show more